Voltar ao catálogo

ATLAS 2 CENTAUR R/B

AtivoHEO
NORAD 23468·ROCKET BODY·🇺🇸 United States

Lançado Jan 29, 1995 de Cape Canaveral Space Force Station

Loading…

Próximas Passagens (próximas 24 horas)

TLE

AtualizadoSource: Space-Track

Época: Sep 14, 2026, 04:53 UTC

1 23468U 95003B   26257.20380568  .00006173  00000-0  11088-2 0  9991
2 23468  26.5977 181.6238 5684058  83.9486 334.6076  4.52415360421639

Acompanhe ATLAS 2 CENTAUR R/B em tempo real com AllMySat

Download on the App Store